FW1657 Weather Reports


time (UTC)temp
C
wind
direction
speed
KPH
gust
KPH
rain 1hr
cm
rain 24hr
cm
rain mn
cm
humidity
%
barometer
mb
20260507104516 11 279 4.8 11.3 0.00 0.00 0.00 76 1016.4
20260507103016 11 253 3.2 11.3 0.00 0.00 0.00 75 1016.4
20260507101519 11 316 8.0 14.5 0.00 0.00 0.00 76 1016.3
20260507100013 11 314 4.8 9.7 0.00 0.00 0.00 76 1016.2
20260507094512 12 244 0.0 12.9 0.00 0.00 0.00 74 1016.0
20260507093009 11 149 3.2 12.9 0.00 0.00 0.00 76 1015.9
20260507091504 10 261 6.4 14.5 0.00 0.00 0.00 80 1015.8
20260507090006 10 217 4.8 9.7 0.00 0.03 0.00 82 1015.8
20260507084502 10 181 6.4 16.1 0.00 0.03 0.00 82 1015.4
20260507083003 10 200 4.8 12.9 0.00 0.03 0.00 84 1015.5
20260507081604 10 153 4.8 9.7 0.00 0.03 0.00 83 1015.3
20260507080058 10 200 8.0 16.1 0.00 0.03 0.00 83 1015.1
20260507074559 10 196 9.7 19.3 0.00 0.08 0.00 82 1015.1
20260507073053 9 167 6.4 12.9 0.00 0.08 0.00 87 1014.8
20260507071556 8 201 6.4 12.9 0.00 0.08 0.00 87 1014.9
20260507070100 9 171 6.4 12.9 0.00 0.08 0.00 89 1014.8
20260507064547 8 175 6.4 14.5 0.00 0.10 0.00 91 1014.6
20260507063043 7 159 6.4 14.5 0.00 0.10 0.00 94 1014.5
20260507061542 7 209 4.8 8.0 0.00 0.10 0.00 94 1014.6
20260507060053 6 104 0.0 3.2 0.00 0.10 0.00 94 1014.5
20260507054541 6 104 0.0 1.6 0.00 0.13 0.00 94 1014.2
20260507053045 6 104 1.6 6.4 0.00 0.13 0.00 94 1014.1
20260507051541 6 102 0.0 4.8 0.00 0.13 0.00 94 1013.9
20260507050041 6 102 1.6 4.8 0.00 0.13 0.00 94 1013.7
20260507044534 5 102 3.2 6.4 0.00 0.13 0.00 94 1013.5
20260507043032 5 85 0.0 0.0 0.00 0.13 0.00 93 1013.3
20260507041532 5 85 0.0 0.0 0.00 0.13 0.00 93 1013.1
20260507040030 5 85 0.0 0.0 0.00 0.13 0.00 93 1013.0
20260507034548 5 85 1.6 4.8 0.00 0.13 0.00 93 1012.9
20260507033031 5 85 1.6 6.4 0.00 0.13 0.00 93 1012.9
20260507031526 5 83 0.0 4.8 0.00 0.13 0.00 92 1012.8
20260507030025 5 84 1.6 3.2 0.00 0.13 0.00 92 1012.7
20260507024538 5 84 3.2 6.4 0.00 0.13 0.00 92 1012.8
20260507023020 6 165 0.0 0.0 0.00 0.13 0.00 91 1012.6
20260507021520 6 165 1.6 6.4 0.00 0.13 0.00 91 1012.6
20260507020017 6 169 3.2 9.7 0.00 0.13 0.00 91 1012.4
20260507014528 6 160 4.8 8.0 0.00 0.13 0.00 91 1012.4
20260507013011 6 127 0.0 0.0 0.00 0.13 0.00 91 1012.4
20260507011521 6 127 0.0 0.0 0.00 0.13 0.00 91 1012.3
20260507010016 6 127 0.0 1.6 0.00 0.13 0.00 91 1012.2
20260507004508 6 127 0.0 6.4 0.00 0.13 0.00 91 1012.2
20260507003015 6 166 0.0 0.0 0.00 0.13 0.00 91 1012.0
20260507001507 6 166 0.0 6.4 0.00 0.13 0.00 90 1012.1
20260507000004 6 170 4.8 9.7 0.00 0.13 0.00 90 1012.1
20260506234502 7 147 4.8 9.7 0.00 0.13 0.00 90 1012.0
20260506233109 7 149 3.2 8.0 0.00 0.13 0.00 90 1011.9
20260506231559 7 148 3.2 9.7 0.00 0.13 0.00 91 1011.9
20260506230056 7 124 3.2 6.4 0.00 0.13 0.00 91 1011.7
20260506224555 7 145 3.2 4.8 0.00 0.15 0.00 91 1011.5
20260506223058 7 145 0.0 4.8 0.00 0.15 0.00 90 1011.6
20260506221550 7 144 3.2 6.4 0.00 0.15 0.00 90 1011.3
20260506220051 7 165 4.8 8.0 0.00 0.15 0.00 90 1011.1
20260506214544 7 136 4.8 9.7 0.00 0.15 0.15 90 1011.1
20260506213043 7 136 4.8 12.9 0.00 0.15 0.15 90 1011.0
20260506211550 8 134 4.8 12.9 0.00 0.15 0.15 89 1010.9
20260506210041 8 146 3.2 9.7 0.00 0.15 0.15 89 1010.9
20260506204539 8 154 4.8 9.7 0.00 0.15 0.15 88 1010.7
20260506203038 8 180 4.8 9.7 0.00 0.15 0.15 88 1010.8
20260506201537 8 165 4.8 9.7 0.00 0.15 0.15 88 1010.6
20260506200035 8 165 3.2 6.4 0.00 0.15 0.15 87 1010.6
20260506194537 8 162 1.6 8.0 0.00 0.28 0.15 87 1010.4
20260506193034 8 152 3.2 8.0 0.00 0.28 0.15 87 1010.2
20260506191533 8 175 6.4 9.7 0.00 0.28 0.15 86 1009.7
20260506190029 8 177 4.8 9.7 0.00 0.28 0.15 87 1009.6
20260506184526 8 170 4.8 6.4 0.00 0.58 0.15 86 1009.4
20260506183023 9 191 4.8 12.9 0.00 0.58 0.15 87 1009.3
20260506181521 9 174 9.7 19.3 0.00 0.58 0.15 86 1009.3
20260506180018 10 171 9.7 20.9 0.00 0.58 0.15 85 1008.9
20260506174515 10 191 4.8 11.3 0.00 0.71 0.15 85 1008.7
20260506173014 10 229 4.8 19.3 0.00 0.71 0.15 85 1008.5
20260506171512 10 200 6.4 14.5 0.00 0.71 0.15 86 1008.4
20260506170011 10 186 11.3 19.3 0.00 0.71 0.15 85 1008.2
20260506164510 10 175 4.8 12.9 0.00 0.71 0.15 86 1008.2
20260506163009 10 166 8.0 14.5 0.00 0.71 0.15 85 1008.3
20260506161510 10 181 6.4 16.1 0.00 0.71 0.15 86 1008.2
20260506160008 10 200 6.4 19.3 0.00 0.71 0.15 86 1008.2
20260506154506 10 222 6.4 16.1 0.00 0.71 0.15 86 1008.1
20260506153005 10 161 8.0 16.1 0.00 0.71 0.15 86 1008.0
20260506151503 10 156 4.8 16.1 0.00 0.71 0.15 87 1007.9
20260506150002 10 165 8.0 19.3 0.00 0.79 0.15 87 1007.8
20260506144503 11 167 11.3 17.7 0.00 0.79 0.15 88 1007.7
20260506143100 10 208 9.7 20.9 0.00 0.79 0.15 90 1007.6
20260506141600 10 163 11.3 17.7 0.00 0.79 0.15 91 1007.7
20260506140122 10 191 11.3 16.1 0.00 0.79 0.15 91 1007.8
20260506134558 10 150 6.4 16.1 0.00 0.81 0.15 89 1007.7
20260506133134 10 152 8.0 14.5 0.00 0.81 0.15 90 1007.9
20260506131557 10 153 8.0 17.7 0.00 0.81 0.15 89 1007.7
20260506130137 10 136 8.0 14.5 0.00 0.81 0.15 89 1007.6
20260506124554 11 146 11.3 19.3 0.00 0.89 0.15 90 1007.5
20260506123052 10 181 8.0 14.5 0.00 0.89 0.15 91 1007.3
20260506121554 10 161 8.0 16.1 0.00 0.89 0.15 92 1007.2
20260506120052 10 129 6.4 12.9 0.00 0.89 0.15 92 1007.2
20260506114549 10 150 4.8 8.0 0.00 0.91 0.15 92 1007.1
20260506113052 10 146 8.0 12.9 0.00 0.91 0.15 93 1007.0
20260506111547 10 186 3.2 9.7 0.00 0.91 0.15 93 1006.9
20260506110046 10 167 6.4 16.1 0.00 0.91 0.15 93 1006.7